owner,sensor,date,latitude,longitude,vertical_datum,wind_speed,wind_to_direction,wind_speed_of_gust,qcFlag 
TABS,ioos:station:wmo:42044:1,2017-04-01T00:00:00Z,26.1914,-97.0507,0.0,8.679775343,147.3721479,10.13,'11111222,11111222,11111222' 
TABS,ioos:station:wmo:42044:1,2017-04-01T00:30:00Z,26.1914,-97.0507,0.0,9.031350951,144.6912366,11.16,'11111222,11111222,11111222' 
TABS,ioos:station:wmo:42044:1,2017-04-01T01:00:00Z,26.1914,-97.0507,0.0,9.453216384,141.2269048,11.14,'11111222,11111222,11111222' 
TABS,ioos:station:wmo:42044:1,2017-04-01T01:30:00Z,26.1914,-97.0507,0.0,9.464142856,142.815591,11.72,'11111222,11111222,11111222' 
TABS,ioos:station:wmo:42044:1,2017-04-01T02:00:00Z,26.1914,-97.0507,0.0,9.527586263,136.4037145,11.34,'11111222,11111222,11111222' 
TABS,ioos:station:wmo:42044:1,2017-04-01T02:30:00Z,26.1914,-97.0507,0.0,9.935154755,134.5517468,12.15,'11111222,11111222,11111222' 
TABS,ioos:station:wmo:42044:1,2017-04-01T03:00:00Z,26.1914,-97.0507,0.0,9.377504999,138.2855845,11.8,'11111222,11111222,11111222' 
TABS,ioos:station:wmo:42044:1,2017-04-01T03:30:00Z,26.1914,-97.0507,0.0,9.438410883,136.9752451,11.51,'11111222,11111222,11111222' 
TABS,ioos:station:wmo:42044:1,2017-04-01T04:00:00Z,26.1914,-97.0507,0.0,9.557013132,139.7111392,11.87,'11111222,11111222,11111222' 
TABS,ioos:station:wmo:42044:1,2017-04-01T04:30:00Z,26.1914,-97.0507,0.0,9.561945409,140.5169595,11.58,'11111222,11111222,11111222' 
TABS,ioos:station:wmo:42044:1,2017-04-01T05:00:00Z,26.1914,-97.0507,0.0,9.236563214,143.7631316,11.07,'11111222,11111222,11111222' 
TABS,ioos:station:wmo:42044:1,2017-04-01T05:30:00Z,26.1914,-97.0507,0.0,8.650456635,148.8093442,10.25,'11111222,11111222,11111222' 
TABS,ioos:station:wmo:42044:1,2017-04-01T06:00:00Z,26.1914,-97.0507,0.0,8.957103326,151.747177,10.6,'11111222,11111222,11111222' 
TABS,ioos:station:wmo:42044:1,2017-04-01T06:30:00Z,26.1914,-97.0507,0.0,8.682315359,157.3042547,10.59,'11111222,11111222,11111222' 
TABS,ioos:station:wmo:42044:1,2017-04-01T07:00:00Z,26.1914,-97.0507,0.0,8.582738491,156.1530058,10.24,'11111222,11111222,11111222' 
TABS,ioos:station:wmo:42044:1,2017-04-01T07:30:00Z,26.1914,-97.0507,0.0,8.738718442,153.7870838,10.34,'11111222,11111222,11111222' 
TABS,ioos:station:wmo:42044:1,2017-04-01T08:00:00Z,26.1914,-97.0507,0.0,8.640185183,153.316597,10.55,'11111222,11111222,11111222' 
TABS,ioos:station:wmo:42044:1,2017-04-01T08:30:00Z,26.1914,-97.0507,0.0,9.501142037,154.702856,11.57,'11111222,11111222,11111222' 
TABS,ioos:station:wmo:42044:1,2017-04-01T09:00:00Z,26.1914,-97.0507,0.0,9.179858387,155.7526008,10.73,'11111222,11111222,11111222' 
TABS,ioos:station:wmo:42044:1,2017-04-01T09:30:00Z,26.1914,-97.0507,0.0,9.012635575,155.4826546,12.12,'11111222,11111222,11111222' 
TABS,ioos:station:wmo:42044:1,2017-04-01T10:00:00Z,26.1914,-97.0507,0.0,8.814771693,153.8131172,11.23,'11111222,11111222,11111222' 
TABS,ioos:station:wmo:42044:1,2017-04-01T10:30:00Z,26.1914,-97.0507,0.0,8.568506288,157.5655709,10.29,'11111222,11111222,11111222' 
TABS,ioos:station:wmo:42044:1,2017-04-01T11:00:00Z,26.1914,-97.0507,0.0,8.309957882,158.4677234,10.6,'11111222,11111222,11111222' 
TABS,ioos:station:wmo:42044:1,2017-04-01T11:30:00Z,26.1914,-97.0507,0.0,8.649953757,154.2350569,10.51,'11111222,11111222,11111222' 
TABS,ioos:station:wmo:42044:1,2017-04-01T12:00:00Z,26.1914,-97.0507,0.0,8.020006234,151.2301726,9.79,'11111222,11111222,11111222' 
TABS,ioos:station:wmo:42044:1,2017-04-01T12:30:00Z,26.1914,-97.0507,0.0,7.749645153,147.9713914,9.14,'11111222,11111222,11111222' 
TABS,ioos:station:wmo:42044:1,2017-04-01T13:00:00Z,26.1914,-97.0507,0.0,7.866899008,152.8489305,9.56,'11111222,11111222,11111222' 
TABS,ioos:station:wmo:42044:1,2017-04-01T13:30:00Z,26.1914,-97.0507,0.0,7.943122812,152.7255143,10.17,'11111222,11111222,11111222' 
TABS,ioos:station:wmo:42044:1,2017-04-01T14:00:00Z,26.1914,-97.0507,0.0,8.393449827,148.5448308,9.97,'11111222,11111222,11111222' 
TABS,ioos:station:wmo:42044:1,2017-04-01T14:30:00Z,26.1914,-97.0507,0.0,8.775420218,146.527524,10.61,'11111222,11111222,11111222' 
TABS,ioos:station:wmo:42044:1,2017-04-01T15:00:00Z,26.1914,-97.0507,0.0,10.02758695,145.359344,12.25,'11111222,11111222,11111222' 
TABS,ioos:station:wmo:42044:1,2017-04-01T15:30:00Z,26.1914,-97.0507,0.0,9.737391848,147.5832488,11.61,'11111222,11111222,11111222' 
TABS,ioos:station:wmo:42044:1,2017-04-01T16:00:00Z,26.1914,-97.0507,0.0,8.660190529,148.0720443,10.27,'11111222,11111222,11111222' 
TABS,ioos:station:wmo:42044:1,2017-04-01T16:30:00Z,26.1914,-97.0507,0.0,7.542473069,154.8961815,9.4,'11111222,11111222,11111222' 
TABS,ioos:station:wmo:42044:1,2017-04-01T17:00:00Z,26.1914,-97.0507,0.0,7.735819284,155.1578794,9.46,'11111222,11111222,11111222' 
TABS,ioos:station:wmo:42044:1,2017-04-01T17:30:00Z,26.1914,-97.0507,0.0,8.031793075,148.3881087,9.51,'11111222,11111222,11111222' 
TABS,ioos:station:wmo:42044:1,2017-04-01T18:00:00Z,26.1914,-97.0507,0.0,7.784420338,150.2736574,9.54,'11111222,11111222,11111222' 
TABS,ioos:station:wmo:42044:1,2017-04-01T18:30:00Z,26.1914,-97.0507,0.0,7.327707691,146.6355152,8.73,'11111222,11111222,11111222' 
TABS,ioos:station:wmo:42044:1,2017-04-01T19:00:00Z,26.1914,-97.0507,0.0,7.490240317,145.058405,9.26,'11111222,11111222,11111222' 
TABS,ioos:station:wmo:42044:1,2017-04-01T19:30:00Z,26.1914,-97.0507,0.0,7.417283869,142.064341,9.5,'11111222,11111222,11111222' 
TABS,ioos:station:wmo:42044:1,2017-04-01T20:00:00Z,26.1914,-97.0507,0.0,7.715568676,137.6267152,9.49,'11111222,11111222,11111222' 
TABS,ioos:station:wmo:42044:1,2017-04-01T20:30:00Z,26.1914,-97.0507,0.0,7.184330171,134.6619595,8.83,'11111222,11111222,11111222' 
TABS,ioos:station:wmo:42044:1,2017-04-01T21:00:00Z,26.1914,-97.0507,0.0,7.440228491,129.8749179,8.55,'11111222,11111222,11111222' 
TABS,ioos:station:wmo:42044:1,2017-04-01T21:30:00Z,26.1914,-97.0507,0.0,7.062294245,128.3307114,8.41,'11111222,11111222,11111222' 
TABS,ioos:station:wmo:42044:1,2017-04-01T22:00:00Z,26.1914,-97.0507,0.0,7.494864909,128.9347355,9.46,'11111222,11111222,11111222' 
TABS,ioos:station:wmo:42044:1,2017-04-01T22:30:00Z,26.1914,-97.0507,0.0,7.872839386,124.8611936,9.24,'11111222,11111222,11111222' 
TABS,ioos:station:wmo:42044:1,2017-04-01T23:00:00Z,26.1914,-97.0507,0.0,7.977994736,122.6147486,9.67,'11111222,11111222,11111222' 
TABS,ioos:station:wmo:42044:1,2017-04-01T23:30:00Z,26.1914,-97.0507,0.0,7.880418771,124.5575426,9.54,'11111222,11111222,11111222' 
TABS,ioos:station:wmo:42044:1,2017-04-02T00:00:00Z,26.1914,-97.0507,0.0,7.576080781,122.4947386,9.54,'11111222,11111222,11111222' 
TABS,ioos:station:wmo:42044:1,2017-04-02T00:30:00Z,26.1914,-97.0507,0.0,7.394193668,117.8130308,8.9,'11111222,11111222,11111222' 
TABS,ioos:station:wmo:42044:1,2017-04-02T01:00:00Z,26.1914,-97.0507,0.0,6.922152844,114.6772264,8.45,'11111222,11111222,11111222' 
TABS,ioos:station:wmo:42044:1,2017-04-02T01:30:00Z,26.1914,-97.0507,0.0,7.023595945,113.3167832,8.31,'11111222,11111222,11111222' 
TABS,ioos:station:wmo:42044:1,2017-04-02T02:00:00Z,26.1914,-97.0507,0.0,7.804165554,117.0579106,9.35,'11111222,11111222,11111222' 
TABS,ioos:station:wmo:42044:1,2017-04-02T02:30:00Z,26.1914,-97.0507,0.0,7.833421985,114.111384,8.95,'11111222,11111222,11111222' 
TABS,ioos:station:wmo:42044:1,2017-04-02T03:00:00Z,26.1914,-97.0507,0.0,8.180391189,118.633173,9.78,'11111222,11111222,11111222' 
TABS,ioos:station:wmo:42044:1,2017-04-02T03:30:00Z,26.1914,-97.0507,0.0,8.69416471,121.7891776,10.41,'11111222,11111222,11111222' 
TABS,ioos:station:wmo:42044:1,2017-04-02T04:00:00Z,26.1914,-97.0507,0.0,7.886659622,126.1291938,9.4,'11111222,11111222,11111222' 
TABS,ioos:station:wmo:42044:1,2017-04-02T04:30:00Z,26.1914,-97.0507,0.0,6.951402736,132.3183661,8.52,'11111222,11111222,11111222' 
TABS,ioos:station:wmo:42044:1,2017-04-02T05:00:00Z,26.1914,-97.0507,0.0,7.102175723,131.9755424,8.77,'11111222,11111222,11111222' 
TABS,ioos:station:wmo:42044:1,2017-04-02T05:30:00Z,26.1914,-97.0507,0.0,6.446859701,128.5768603,7.7,'11111222,11111222,11111222' 
TABS,ioos:station:wmo:42044:1,2017-04-02T06:00:00Z,26.1914,-97.0507,0.0,6.602310202,126.3148239,8.13,'11111222,11111222,11111222' 
TABS,ioos:station:wmo:42044:1,2017-04-02T06:30:00Z,26.1914,-97.0507,0.0,6.293846201,128.873397,8.2,'11111222,11111222,11111222' 
TABS,ioos:station:wmo:42044:1,2017-04-02T07:00:00Z,26.1914,-97.0507,0.0,5.581442466,133.3305733,6.65,'11111222,11111222,11111222' 
TABS,ioos:station:wmo:42044:1,2017-04-02T07:30:00Z,26.1914,-97.0507,0.0,5.601473021,131.8886973,6.65,'11111222,11111222,11111222' 
TABS,ioos:station:wmo:42044:1,2017-04-02T08:00:00Z,26.1914,-97.0507,0.0,6.326104647,132.8223363,7.46,'11111222,11111222,11111222' 
TABS,ioos:station:wmo:42044:1,2017-04-02T08:30:00Z,26.1914,-97.0507,0.0,5.974378629,139.7526831,6.95,'11111222,11111222,11111222' 
TABS,ioos:station:wmo:42044:1,2017-04-02T09:00:00Z,26.1914,-97.0507,0.0,6.026383659,142.4838775,7.7,'11111222,11111222,11111222' 
TABS,ioos:station:wmo:42044:1,2017-04-02T09:30:00Z,26.1914,-97.0507,0.0,6.728001189,141.1542957,8.42,'11111222,11111222,11111222' 
TABS,ioos:station:wmo:42044:1,2017-04-02T10:00:00Z,26.1914,-97.0507,0.0,7.226631304,135.0003157,8.61,'11111222,11111222,11111222' 
TABS,ioos:station:wmo:42044:1,2017-04-02T10:30:00Z,26.1914,-97.0507,0.0,5.467952085,136.556477,6.9,'11111222,11111222,11111222' 
TABS,ioos:station:wmo:42044:1,2017-04-02T11:00:00Z,26.1914,-97.0507,0.0,5.257385282,139.7063498,6.42,'11111222,11111222,11111222' 
TABS,ioos:station:wmo:42044:1,2017-04-02T11:30:00Z,26.1914,-97.0507,0.0,6.645329187,146.1667438,8.19,'11111222,11111222,11111222' 
TABS,ioos:station:wmo:42044:1,2017-04-02T12:00:00Z,26.1914,-97.0507,0.0,6.854815825,151.6032828,8.62,'11111222,11111222,11111222' 
TABS,ioos:station:wmo:42044:1,2017-04-02T12:30:00Z,26.1914,-97.0507,0.0,6.070757778,156.0952744,7.4,'11111222,11111222,11111222' 
TABS,ioos:station:wmo:42044:1,2017-04-02T13:00:00Z,26.1914,-97.0507,0.0,6.014798417,157.8273818,7.32,'11111222,11111222,11111222' 
TABS,ioos:station:wmo:42044:1,2017-04-02T13:30:00Z,26.1914,-97.0507,0.0,5.967352847,150.0410323,7.32,'11111222,11111222,11111222' 
TABS,ioos:station:wmo:42044:1,2017-04-02T14:00:00Z,26.1914,-97.0507,0.0,5.836308765,153.8742599,6.85,'11111222,11111222,11111222' 
TABS,ioos:station:wmo:42044:1,2017-04-02T14:30:00Z,26.1914,-97.0507,0.0,5.206313475,156.9317271,6.23,'11111222,11111222,11111222' 
TABS,ioos:station:wmo:42044:1,2017-04-02T15:00:00Z,26.1914,-97.0507,0.0,4.089914425,171.9889976,5.27,'11111222,11111222,11111222' 
TABS,ioos:station:wmo:42044:1,2017-04-02T15:30:00Z,26.1914,-97.0507,0.0,3.819227671,169.89666,4.8,'11111222,11111222,11111222' 
TABS,ioos:station:wmo:42044:1,2017-04-02T16:00:00Z,26.1914,-97.0507,0.0,4.0988413,163.997249,5.15,'11111222,11111222,11111222' 
TABS,ioos:station:wmo:42044:1,2017-04-02T16:30:00Z,26.1914,-97.0507,0.0,4.27001171,180.1343921,5.68,'11111222,11111222,11111222' 
TABS,ioos:station:wmo:42044:1,2017-04-02T17:00:00Z,26.1914,-97.0507,0.0,4.115264269,169.7825581,4.97,'11111222,11111222,11111222' 
TABS,ioos:station:wmo:42044:1,2017-04-02T17:30:00Z,26.1914,-97.0507,0.0,2.272201576,154.4501956,3.0,'11111222,11111222,11111222' 
TABS,ioos:station:wmo:42044:1,2017-04-02T18:00:00Z,26.1914,-97.0507,0.0,2.200568108,141.8284494,2.75,'11111222,11111222,11111222' 
TABS,ioos:station:wmo:42044:1,2017-04-02T18:30:00Z,26.1914,-97.0507,0.0,2.936153947,112.6352436,3.61,'11111222,11111222,11111222' 
TABS,ioos:station:wmo:42044:1,2017-04-02T19:00:00Z,26.1914,-97.0507,0.0,4.397271882,111.8985625,5.11,'11111222,11111222,11111222' 
TABS,ioos:station:wmo:42044:1,2017-04-02T19:30:00Z,26.1914,-97.0507,0.0,5.248437863,113.5859872,6.18,'11111222,11111222,11111222' 
TABS,ioos:station:wmo:42044:1,2017-04-02T20:00:00Z,26.1914,-97.0507,0.0,5.528878729,117.8168149,6.48,'11111222,11111222,11111222' 
TABS,ioos:station:wmo:42044:1,2017-04-02T20:30:00Z,26.1914,-97.0507,0.0,5.596579312,120.1388801,6.74,'11111222,11111222,11111222' 
TABS,ioos:station:wmo:42044:1,2017-04-02T21:00:00Z,26.1914,-97.0507,0.0,6.330529204,122.4854204,7.69,'11111222,11111222,11111222' 
TABS,ioos:station:wmo:42044:1,2017-04-02T21:30:00Z,26.1914,-97.0507,0.0,6.656823567,123.0458608,7.95,'11111222,11111222,11111222' 
TABS,ioos:station:wmo:42044:1,2017-04-02T22:00:00Z,26.1914,-97.0507,0.0,6.399164008,120.2116727,7.62,'11111222,11111222,11111222' 
TABS,ioos:station:wmo:42044:1,2017-04-02T22:30:00Z,26.1914,-97.0507,0.0,5.814851675,117.6671135,7.12,'11111222,11111222,11111222' 
TABS,ioos:station:wmo:42044:1,2017-04-02T23:00:00Z,26.1914,-97.0507,0.0,5.338773267,112.0010678,6.32,'11111222,11111222,11111222' 
TABS,ioos:station:wmo:42044:1,2017-04-02T23:30:00Z,26.1914,-97.0507,0.0,4.717647719,96.20647906,5.88,'11111222,11111222,11111222' 
TABS,ioos:station:wmo:42044:1,2017-04-03T00:00:00Z,26.1914,-97.0507,0.0,4.677873448,100.4695707,5.68,'11111222,11111222,11111222' 
TABS,ioos:station:wmo:42044:1,2017-04-03T00:30:00Z,26.1914,-97.0507,0.0,4.799385377,86.41580628,5.67,'11111222,11111222,11111222' 
TABS,ioos:station:wmo:42044:1,2017-04-03T01:00:00Z,26.1914,-97.0507,0.0,4.102596739,96.01672281,4.74,'11111222,11111222,11111222' 
TABS,ioos:station:wmo:42044:1,2017-04-03T01:30:00Z,26.1914,-97.0507,0.0,3.235428874,112.9199222,3.88,'11111222,11111222,11111222' 
TABS,ioos:station:wmo:42044:1,2017-04-03T02:00:00Z,26.1914,-97.0507,0.0,2.881058833,115.0532984,3.63,'11111222,11111222,11111222' 
TABS,ioos:station:wmo:42044:1,2017-04-03T02:30:00Z,26.1914,-97.0507,0.0,2.942532923,105.1701156,3.82,'11111222,11111222,11111222' 
TABS,ioos:station:wmo:42044:1,2017-04-03T03:00:00Z,26.1914,-97.0507,0.0,2.444994888,336.3704671,6.62,'11111222,11111222,11111222' 
TABS,ioos:station:wmo:42044:1,2017-04-03T03:30:00Z,26.1914,-97.0507,0.0,6.398788948,23.68038327,7.83,'11111222,11111222,11111222' 
TABS,ioos:station:wmo:42044:1,2017-04-03T04:00:00Z,26.1914,-97.0507,0.0,5.515985859,48.01246477,7.06,'11111222,11111222,11111222' 
TABS,ioos:station:wmo:42044:1,2017-04-03T04:30:00Z,26.1914,-97.0507,0.0,3.222374901,18.26601376,4.48,'11111222,11111222,11111222' 
TABS,ioos:station:wmo:42044:1,2017-04-03T05:00:00Z,26.1914,-97.0507,0.0,7.482045175,351.0032975,10.58,'11111222,11111222,11111222' 
TABS,ioos:station:wmo:42044:1,2017-04-03T05:30:00Z,26.1914,-97.0507,0.0,10.07438336,350.6309875,12.35,'11111222,11111222,11111222' 
TABS,ioos:station:wmo:42044:1,2017-04-03T06:00:00Z,26.1914,-97.0507,0.0,9.055385138,353.6596126,11.04,'11111222,11111222,11111222' 
TABS,ioos:station:wmo:42044:1,2017-04-03T06:30:00Z,26.1914,-97.0507,0.0,8.841187703,353.8313702,10.6,'11111222,11111222,11111222' 
TABS,ioos:station:wmo:42044:1,2017-04-03T07:00:00Z,26.1914,-97.0507,0.0,8.386000238,334.1986972,10.47,'11111222,11111222,11111222' 
TABS,ioos:station:wmo:42044:1,2017-04-03T07:30:00Z,26.1914,-97.0507,0.0,7.778046027,348.4298445,9.26,'11111222,11111222,11111222' 
TABS,ioos:station:wmo:42044:1,2017-04-03T08:00:00Z,26.1914,-97.0507,0.0,7.511224933,342.4091796,9.25,'11111222,11111222,11111222' 
TABS,ioos:station:wmo:42044:1,2017-04-03T08:30:00Z,26.1914,-97.0507,0.0,7.879492369,344.6936864,9.46,'11111222,11111222,11111222' 
TABS,ioos:station:wmo:42044:1,2017-04-03T09:00:00Z,26.1914,-97.0507,0.0,8.547525958,334.4241089,10.26,'11111222,11111222,11111222' 
TABS,ioos:station:wmo:42044:1,2017-04-03T09:30:00Z,26.1914,-97.0507,0.0,9.022178229,341.1833201,10.94,'11111222,11111222,11111222' 
TABS,ioos:station:wmo:42044:1,2017-04-03T10:00:00Z,26.1914,-97.0507,0.0,8.329633845,341.9564197,9.78,'11111222,11111222,11111222' 
TABS,ioos:station:wmo:42044:1,2017-04-03T10:30:00Z,26.1914,-97.0507,0.0,8.110394565,346.0149805,9.38,'11111222,11111222,11111222' 
TABS,ioos:station:wmo:42044:1,2017-04-03T11:00:00Z,26.1914,-97.0507,0.0,7.004691285,346.4595468,8.48,'11111222,11111222,11111222' 
TABS,ioos:station:wmo:42044:1,2017-04-03T11:30:00Z,26.1914,-97.0507,0.0,7.420788368,344.7650217,8.54,'11111222,11111222,11111222' 
TABS,ioos:station:wmo:42044:1,2017-04-03T12:00:00Z,26.1914,-97.0507,0.0,6.840562842,344.1349669,8.46,'11111222,11111222,11111222' 
TABS,ioos:station:wmo:42044:1,2017-04-03T12:30:00Z,26.1914,-97.0507,0.0,6.221872708,346.9016694,7.48,'11111222,11111222,11111222' 
TABS,ioos:station:wmo:42044:1,2017-04-03T13:00:00Z,26.1914,-97.0507,0.0,5.853520308,351.5513234,6.9,'11111222,11111222,11111222' 
TABS,ioos:station:wmo:42044:1,2017-04-03T13:30:00Z,26.1914,-97.0507,0.0,5.356286027,354.3211412,6.33,'11111222,11111222,11111222' 
TABS,ioos:station:wmo:42044:1,2017-04-03T14:00:00Z,26.1914,-97.0507,0.0,4.423268023,2.202382552,5.42,'11111222,11111222,11111222' 
TABS,ioos:station:wmo:42044:1,2017-04-03T14:30:00Z,26.1914,-97.0507,0.0,3.940355314,354.1734611,4.82,'11111222,11111222,11111222' 
TABS,ioos:station:wmo:42044:1,2017-04-03T15:00:00Z,26.1914,-97.0507,0.0,3.618079601,344.1196879,4.69,'11111222,11111222,11111222' 
TABS,ioos:station:wmo:42044:1,2017-04-03T15:30:00Z,26.1914,-97.0507,0.0,2.820815485,345.4216758,3.43,'11111222,11111222,11111222' 
TABS,ioos:station:wmo:42044:1,2017-04-03T16:00:00Z,26.1914,-97.0507,0.0,1.958698548,7.923030297,2.68,'11111222,11111222,11111222' 
TABS,ioos:station:wmo:42044:1,2017-04-03T16:30:00Z,26.1914,-97.0507,0.0,2.043624232,11.85954093,2.71,'11111222,11111222,11111222' 
TABS,ioos:station:wmo:42044:1,2017-04-03T17:00:00Z,26.1914,-97.0507,0.0,1.682973559,3.406225331,2.2,'11111222,11111222,11111222' 
TABS,ioos:station:wmo:42044:1,2017-04-03T17:30:00Z,26.1914,-97.0507,0.0,1.85407659,336.4766355,2.38,'11111222,11111222,11111222' 
TABS,ioos:station:wmo:42044:1,2017-04-03T18:00:00Z,26.1914,-97.0507,0.0,2.050390207,330.8095463,2.74,'11111222,11111222,11111222' 
TABS,ioos:station:wmo:42044:1,2017-04-03T18:30:00Z,26.1914,-97.0507,0.0,1.578892017,20.38589647,2.47,'11111222,11111222,11111222' 
TABS,ioos:station:wmo:42044:1,2017-04-03T19:00:00Z,26.1914,-97.0507,0.0,1.838314445,62.45884612,2.41,'11111222,11111222,11111222' 
TABS,ioos:station:wmo:42044:1,2017-04-03T19:30:00Z,26.1914,-97.0507,0.0,2.788834882,98.24672245,3.62,'11111222,11111222,11111222' 
TABS,ioos:station:wmo:42044:1,2017-04-03T20:00:00Z,26.1914,-97.0507,0.0,3.748826483,118.0009193,4.46,'11111222,11111222,11111222' 
TABS,ioos:station:wmo:42044:1,2017-04-03T20:30:00Z,26.1914,-97.0507,0.0,4.319282348,131.9973951,5.4,'11111222,11111222,11111222' 
TABS,ioos:station:wmo:42044:1,2017-04-03T21:00:00Z,26.1914,-97.0507,0.0,4.77322742,134.4061599,5.65,'11111222,11111222,11111222' 
TABS,ioos:station:wmo:42044:1,2017-04-03T21:30:00Z,26.1914,-97.0507,0.0,4.650892387,128.8910132,5.56,'11111222,11111222,11111222' 
TABS,ioos:station:wmo:42044:1,2017-04-03T22:00:00Z,26.1914,-97.0507,0.0,4.855388759,137.5043607,5.97,'11111222,11111222,11111222' 
TABS,ioos:station:wmo:42044:1,2017-04-03T22:30:00Z,26.1914,-97.0507,0.0,5.316135815,132.3320099,6.73,'11111222,11111222,11111222' 
TABS,ioos:station:wmo:42044:1,2017-04-03T23:00:00Z,26.1914,-97.0507,0.0,6.190129239,133.2328966,7.33,'11111222,11111222,11111222' 
TABS,ioos:station:wmo:42044:1,2017-04-03T23:30:00Z,26.1914,-97.0507,0.0,6.178001295,132.7044689,7.74,'11111222,11111222,11111222' 
TABS,ioos:station:wmo:42044:1,2017-04-04T00:00:00Z,26.1914,-97.0507,0.0,6.06756953,128.1734693,7.03,'11111222,11111222,11111222' 
TABS,ioos:station:wmo:42044:1,2017-04-04T00:30:00Z,26.1914,-97.0507,0.0,5.904853936,135.755065,6.99,'11111222,11111222,11111222' 
TABS,ioos:station:wmo:42044:1,2017-04-04T01:00:00Z,26.1914,-97.0507,0.0,6.058927298,144.1328287,7.05,'11111222,11111222,11111222' 
TABS,ioos:station:wmo:42044:1,2017-04-04T01:30:00Z,26.1914,-97.0507,0.0,6.613660106,145.0366609,7.51,'11111222,11111222,11111222' 
TABS,ioos:station:wmo:42044:1,2017-04-04T02:00:00Z,26.1914,-97.0507,0.0,5.886263671,145.3112942,7.06,'11111222,11111222,11111222' 
TABS,ioos:station:wmo:42044:1,2017-04-04T02:30:00Z,26.1914,-97.0507,0.0,5.548666506,144.9067592,6.48,'11111222,11111222,11111222' 
TABS,ioos:station:wmo:42044:1,2017-04-04T03:00:00Z,26.1914,-97.0507,0.0,5.658524543,149.9916547,6.97,'11111222,11111222,11111222' 
TABS,ioos:station:wmo:42044:1,2017-04-04T03:30:00Z,26.1914,-97.0507,0.0,5.621538935,153.7087069,6.67,'11111222,11111222,11111222' 
TABS,ioos:station:wmo:42044:1,2017-04-04T04:00:00Z,26.1914,-97.0507,0.0,5.507177135,154.9708051,6.8,'11111222,11111222,11111222' 
TABS,ioos:station:wmo:42044:1,2017-04-04T04:30:00Z,26.1914,-97.0507,0.0,5.449376111,160.6010466,6.73,'11111222,11111222,11111222' 
TABS,ioos:station:wmo:42044:1,2017-04-04T05:00:00Z,26.1914,-97.0507,0.0,5.474422344,154.2309431,6.57,'11111222,11111222,11111222' 
TABS,ioos:station:wmo:42044:1,2017-04-04T05:30:00Z,26.1914,-97.0507,0.0,5.766472058,149.9226465,6.93,'11111222,11111222,11111222' 
TABS,ioos:station:wmo:42044:1,2017-04-04T06:00:00Z,26.1914,-97.0507,0.0,5.914093337,145.2622475,7.04,'11111222,11111222,11111222' 
TABS,ioos:station:wmo:42044:1,2017-04-04T06:30:00Z,26.1914,-97.0507,0.0,5.99604036,159.600789,7.09,'11111222,11111222,11111222' 
TABS,ioos:station:wmo:42044:1,2017-04-04T07:00:00Z,26.1914,-97.0507,0.0,5.723154724,158.3661652,7.27,'11111222,11111222,11111222' 
TABS,ioos:station:wmo:42044:1,2017-04-04T07:30:00Z,26.1914,-97.0507,0.0,6.428475714,164.0181239,7.77,'11111222,11111222,11111222' 
TABS,ioos:station:wmo:42044:1,2017-04-04T08:00:00Z,26.1914,-97.0507,0.0,6.543126164,170.321973,7.62,'11111222,11111222,11111222' 
TABS,ioos:station:wmo:42044:1,2017-04-04T08:30:00Z,26.1914,-97.0507,0.0,6.259209215,175.5102468,7.24,'11111222,11111222,11111222' 
TABS,ioos:station:wmo:42044:1,2017-04-04T09:00:00Z,26.1914,-97.0507,0.0,6.095777227,174.7292067,7.41,'11111222,11111222,11111222' 
TABS,ioos:station:wmo:42044:1,2017-04-04T09:30:00Z,26.1914,-97.0507,0.0,5.414794548,175.7638256,6.62,'11111222,11111222,11111222' 
TABS,ioos:station:wmo:42044:1,2017-04-04T10:00:00Z,26.1914,-97.0507,0.0,5.053206903,177.9588536,6.47,'11111222,11111222,11111222' 
TABS,ioos:station:wmo:42044:1,2017-04-04T10:30:00Z,26.1914,-97.0507,0.0,5.828979327,175.3753495,6.97,'11111222,11111222,11111222' 
TABS,ioos:station:wmo:42044:1,2017-04-04T11:00:00Z,26.1914,-97.0507,0.0,5.312720584,178.1665129,6.5,'11111222,11111222,11111222' 
TABS,ioos:station:wmo:42044:1,2017-04-04T11:30:00Z,26.1914,-97.0507,0.0,4.706633617,173.9020128,5.56,'11111222,11111222,11111222' 
TABS,ioos:station:wmo:42044:1,2017-04-04T12:00:00Z,26.1914,-97.0507,0.0,4.727377709,166.6695031,5.8,'11111222,11111222,11111222' 
TABS,ioos:station:wmo:42044:1,2017-04-04T12:30:00Z,26.1914,-97.0507,0.0,5.322264556,158.7386065,6.56,'11111222,11111222,11111222' 
TABS,ioos:station:wmo:42044:1,2017-04-04T13:00:00Z,26.1914,-97.0507,0.0,4.784809296,156.8645673,5.63,'11111222,11111222,11111222' 
TABS,ioos:station:wmo:42044:1,2017-04-04T13:30:00Z,26.1914,-97.0507,0.0,5.706557631,153.794437,6.86,'11111222,11111222,11111222' 
TABS,ioos:station:wmo:42044:1,2017-04-04T14:00:00Z,26.1914,-97.0507,0.0,5.577786299,152.3326346,6.8,'11111222,11111222,11111222' 
TABS,ioos:station:wmo:42044:1,2017-04-04T14:30:00Z,26.1914,-97.0507,0.0,5.648999911,150.9850798,6.68,'11111222,11111222,11111222' 
TABS,ioos:station:wmo:42044:1,2017-04-04T15:00:00Z,26.1914,-97.0507,0.0,5.824929184,161.6897251,6.87,'11111222,11111222,11111222' 
TABS,ioos:station:wmo:42044:1,2017-04-04T15:30:00Z,26.1914,-97.0507,0.0,6.059240877,166.8355237,7.08,'11111222,11111222,11111222' 
TABS,ioos:station:wmo:42044:1,2017-04-04T16:00:00Z,26.1914,-97.0507,0.0,6.279697445,166.6500099,7.66,'11111222,11111222,11111222' 
TABS,ioos:station:wmo:42044:1,2017-04-04T16:30:00Z,26.1914,-97.0507,0.0,5.51757193,156.5016997,6.58,'11111222,11111222,11111222' 
TABS,ioos:station:wmo:42044:1,2017-04-04T17:00:00Z,26.1914,-97.0507,0.0,5.660830328,162.2054529,6.54,'11111222,11111222,11111222' 
TABS,ioos:station:wmo:42044:1,2017-04-04T17:30:00Z,26.1914,-97.0507,0.0,5.149417443,165.2623454,6.05,'11111222,11111222,11111222' 
TABS,ioos:station:wmo:42044:1,2017-04-04T18:00:00Z,26.1914,-97.0507,0.0,5.286984017,157.6554954,6.42,'11111222,11111222,11111222' 
TABS,ioos:station:wmo:42044:1,2017-04-04T18:30:00Z,26.1914,-97.0507,0.0,5.379117028,164.3621034,6.45,'11111222,11111222,11111222' 